Weather History for Camden, AR

Change the Weather History Date:

Thursday, March 27, 2014

  Actual Average Record
Temperature  
Mean Temperature 58 °F -  
Max Temperature 66 °F 69 °F 88 °F (1948)
Min Temperature 51 °F 43 °F 24 °F (1955)
Degree Days  
Heating Degree Days 6    
Growing Degree Days 8 (Base 50)    
Moisture  
Dew Point 48 °F    
Average Humidity 68    
Maximum Humidity 88    
Minimum Humidity 36    
Precipitation  
Precipitation 0.10 in - - ()
Sea Level Pressure  
Sea Level Pressure 29.91 in    
Wind  
Wind Speed - (North)    
Max Wind Speed -    
Max Gust Speed -    
Visibility 9 miles    
Events Rain    
Averages and records for this station are not official NWS values.
T = Trace of Precipitation, MM = Missing Value Source: NWS Daily Summary

Daily Weather History Graph

Daily Weather History Graph

Search for Another Location

Airport:

Trip Planner

Search our weather history database for the weather conditions in past years. The results will help you decide how hot, cold, wet, or windy it might be!

Date:

Astronomy

Mar. 27, 2014 Rise Set
Actual Time 7:05 AM CDT 7:27 PM CDT
Civil Twilight 6:40 AM CDT 7:52 PM CDT
Nautical Twilight 6:11 AM CDT 8:22 PM CDT
Astronomical Twilight 5:41 AM CDT 8:51 PM CDT
Moon 4:47 AM CDT (3/27) 4:24 PM CDT (3/27)
Length of Visible Light 13h 12m
Length of Day
12h 22m
Waning Crescent, 13% of the Moon is Illuminated
Mar 27
Waning Crescent
Mar 30
New
Apr 7
First Quarter
Apr 15
Full
Apr 22
Last Quarter

Hourly Weather History & Observations

Time (CDT) Temp. Dew Point Humidity Pressure Visibility Wind Dir Wind Speed Gust Speed Precip Events Conditions
12:15 AM 55.4 °F 28.4 °F 36% 30.06 in 10.0 mi North - - N/A   Overcast
12:35 AM 55.4 °F 28.4 °F 36% 30.06 in 10.0 mi North - - N/A   Overcast
12:55 AM 55.4 °F 28.4 °F 36% 30.05 in 10.0 mi North - - N/A   Mostly Cloudy
1:15 AM 55.4 °F 30.2 °F 38% 30.05 in 10.0 mi North - - N/A   Overcast
1:35 AM 55.4 °F 30.2 °F 38% 30.04 in 10.0 mi North - - N/A   Overcast
1:55 AM 55.4 °F 32.0 °F 41% 30.04 in 10.0 mi North - - N/A   Overcast
2:15 AM 55.4 °F 32.0 °F 41% 30.03 in 10.0 mi North - - N/A   Overcast
2:35 AM 53.6 °F 32.0 °F 44% 30.03 in 10.0 mi North - - N/A   Overcast
2:55 AM 53.6 °F 33.8 °F 47% 30.02 in 10.0 mi North - - N/A   Overcast
3:15 AM 53.6 °F 35.6 °F 51% 30.01 in 10.0 mi North - - N/A   Overcast
3:35 AM 53.6 °F 35.6 °F 51% 30.01 in 10.0 mi North - - N/A   Overcast
3:55 AM 51.8 °F 35.6 °F 54% 30.00 in 10.0 mi North - - N/A   Overcast
4:15 AM 51.8 °F 35.6 °F 54% 30.00 in 10.0 mi North - - N/A   Overcast
4:35 AM 51.8 °F 35.6 °F 54% 30.00 in 10.0 mi North - - N/A   Overcast
4:55 AM 51.8 °F 37.4 °F 58% 29.99 in 10.0 mi North - - N/A   Overcast
5:15 AM 51.8 °F 37.4 °F 58% 29.98 in 10.0 mi North - - N/A   Overcast
5:35 AM 51.8 °F 37.4 °F 58% 29.98 in 10.0 mi North - - N/A   Overcast
5:55 AM 51.8 °F 37.4 °F 58% 29.97 in 10.0 mi North - - N/A   Overcast
6:15 AM 51.8 °F 39.2 °F 62% 29.97 in 10.0 mi North - - N/A   Overcast
6:35 AM 53.6 °F 39.2 °F 58% 29.99 in 10.0 mi North - - N/A   Overcast
6:55 AM 53.6 °F 41.0 °F 62% 29.98 in 10.0 mi North - - N/A   Overcast
7:15 AM 53.6 °F 41.0 °F 62% 29.97 in 10.0 mi North - - N/A   Overcast
7:35 AM 53.6 °F 41.0 °F 62% 29.98 in 10.0 mi North - - N/A   Overcast
7:55 AM 53.6 °F 42.8 °F 67% 29.99 in 10.0 mi North - - N/A   Overcast
8:15 AM 53.6 °F 42.8 °F 67% 29.98 in 10.0 mi North - - N/A   Overcast
8:35 AM 53.6 °F 44.6 °F 72% 29.98 in 10.0 mi North - - N/A   Overcast
8:55 AM 55.4 °F 44.6 °F 67% 29.98 in 10.0 mi North - - N/A   Overcast
9:15 AM 55.4 °F 44.6 °F 67% 29.98 in 9.0 mi North - - N/A   Overcast
9:35 AM 55.4 °F 44.6 °F 67% 29.97 in 10.0 mi North - - N/A   Overcast
9:55 AM 55.4 °F 46.4 °F 72% 29.97 in 9.0 mi North - - N/A   Overcast
10:15 AM 57.2 °F 46.4 °F 67% 29.97 in 10.0 mi North - - N/A   Overcast
10:35 AM 59.0 °F 48.2 °F 67% 29.95 in 10.0 mi North - - N/A   Mostly Cloudy
10:55 AM 59.0 °F 48.2 °F 67% 29.95 in 10.0 mi North - - N/A   Mostly Cloudy
11:15 AM 60.8 °F 48.2 °F 63% 29.95 in 10.0 mi North - - N/A   Mostly Cloudy
11:35 AM 62.6 °F 50.0 °F 63% 29.94 in 10.0 mi North - - N/A   Mostly Cloudy
11:55 AM 64.4 °F 50.0 °F 59% 29.92 in 10.0 mi North - - N/A   Overcast
12:15 PM 64.4 °F 50.0 °F 59% 29.91 in 10.0 mi North - - N/A   Mostly Cloudy
12:35 PM 64.4 °F 50.0 °F 59% 29.89 in 10.0 mi North - - N/A   Overcast
12:55 PM 64.4 °F 51.8 °F 64% 29.88 in 10.0 mi North - - N/A   Overcast
1:15 PM 64.4 °F 53.6 °F 68% 29.85 in 5.0 mi North - - 0.02 in   Haze
1:35 PM 60.8 °F 55.4 °F 82% 29.84 in 7.0 mi North - - 0.04 in   Overcast
1:55 PM 64.4 °F 55.4 °F 73% 29.84 in 10.0 mi North - - 0.04 in   Overcast
2:15 PM 66.2 °F 55.4 °F 68% 29.83 in 10.0 mi North - - N/A   Overcast
2:35 PM 66.2 °F 55.4 °F 68% 29.83 in 10.0 mi North - - N/A   Overcast
2:55 PM 66.2 °F 55.4 °F 68% 29.82 in 10.0 mi North - - N/A   Overcast
3:15 PM 66.2 °F 55.4 °F 68% 29.81 in 10.0 mi North - - N/A   Overcast
3:35 PM 66.2 °F 55.4 °F 68% 29.80 in 10.0 mi North - - N/A   Overcast
3:55 PM 66.2 °F 55.4 °F 68% 29.80 in 10.0 mi North - - N/A Rain Light Rain
4:15 PM 66.2 °F 55.4 °F 68% 29.79 in 9.0 mi North - - N/A Rain Light Rain
4:35 PM 62.6 °F 57.2 °F 82% 29.80 in 2.0 mi North - - 0.02 in Rain Heavy Rain
4:55 PM 62.6 °F 59.0 °F 88% 29.80 in 2.5 mi North - - 0.06 in Rain Light Rain
5:15 PM 62.6 °F 59.0 °F 88% 29.80 in 7.0 mi North - - N/A   Overcast
5:35 PM 62.6 °F 59.0 °F 88% 29.80 in 5.0 mi North - - N/A   Overcast
5:55 PM 62.6 °F 59.0 °F 88% 29.80 in 8.0 mi North - - N/A   Overcast
6:15 PM 62.6 °F 59.0 °F 88% 29.80 in 8.0 mi North - - N/A   Overcast
6:35 PM 62.6 °F 59.0 °F 88% 29.80 in 8.0 mi North - - N/A   Overcast
6:55 PM 62.6 °F 59.0 °F 88% 29.80 in 8.0 mi North - - N/A   Overcast
7:15 PM 62.6 °F 59.0 °F 88% 29.81 in 9.0 mi North - - N/A   Overcast
7:55 PM 62.6 °F 59.0 °F 88% 29.81 in 10.0 mi North - - N/A   Overcast
8:15 PM 62.6 °F 59.0 °F 88% 29.82 in 10.0 mi North - - N/A   Overcast
8:35 PM 62.6 °F 59.0 °F 88% 29.82 in 10.0 mi North - - N/A   Overcast
8:55 PM 62.6 °F 59.0 °F 88% 29.83 in 10.0 mi North - - N/A   Overcast
9:15 PM 62.6 °F 59.0 °F 88% 29.83 in 9.0 mi North - - N/A   Overcast
9:35 PM 62.6 °F 59.0 °F 88% 29.84 in 10.0 mi North - - N/A   Overcast
9:55 PM 62.6 °F 59.0 °F 88% 29.84 in 9.0 mi North - - N/A   Mostly Cloudy
10:15 PM 62.6 °F 59.0 °F 88% 29.84 in 10.0 mi North - - N/A   Overcast
10:35 PM 62.6 °F 59.0 °F 88% 29.85 in 10.0 mi North - - N/A   Overcast
10:55 PM 62.6 °F 59.0 °F 88% 29.85 in 10.0 mi North - - N/A   Overcast
11:15 PM 62.6 °F 59.0 °F 88% 29.84 in 10.0 mi North - - N/A   Overcast
11:35 PM 62.6 °F 59.0 °F 88% 29.84 in 10.0 mi North - - N/A   Overcast
11:55 PM 62.6 °F 59.0 °F 88% 29.84 in 10.0 mi North - - N/A   Overcast